Location: Falconara Alta
(43.6167°N, 13.4000°E)
Time: 02:12:27
(UTC+00:00)

Cosmos 2366 rocket - Pass Details

Date: 09 April 2020
Orbit: 956 x 996 km, 82.9° (Epoch: 02 June)

Event Time Altitude Azimuth Distance (km) Brightness Sun altitude
Rises 19:37:04 0° 354° (N) 3,646 7.6 -19.8°
Reaches altitude 10° 19:39:35 10° 357° (N) 2,696 6.8 -20.2°
Maximum altitude 19:45:43 67° 80° (E) 1,037 3.9 -21.1°
Enters shadow 19:48:09 38° 150° (SSE) 1,435 4.4 -21.5°
